Theta_e
283 283 283 284 283 282 282 281 281 281 280 280 280 280 280 281 281 281 281 281 281 282 282 281 281 281 282 282 282 283 283 283 284 284 284 284 284 284 285 285 285 285 285 285 286 285 285 285 285 285 285 284 283 283 283 282 282 282 282 282 282 283 282 282 282 283 284 282 283 283 284 283 282 283 283 284 283 284 287 285 286 286 286 287 289
281 282 281 281 281 281 281 281 280 280 280 280 280 280 281 281 280 281 281 281 281 281 281 282 281 281 281 281 282 282 282 282 283 283 283 283 283 285 284 284 284 284 285 284 285 286 285 285 285 285 285 284 284 284 284 283 282 282 281 281 282 283 282 282 283 283 283 283 281 280 280 282 283 282 283 283 283 283 283 285 285 285 286 286 287
279 279 279 279 279 278 278 279 279 279 279 279 279 280 280 280 280 280 281 281 281 280 281 281 281 281 281 281 281 281 282 281 281 282 282 282 283 283 284 283 283 283 283 284 284 285 285 285 285 285 286 285 285 284 284 284 284 283 283 282 282 282 282 282 283 282 283 283 283 282 281 280 282 283 282 284 284 284 283 284 284 285 286 286 286
280 280 279 279 278 278 278 277 278 277 278 278 278 278 279 279 279 279 280 280 280 280 280 280 280 280 280 280 280 281 281 281 281 281 281 281 281 282 283 283 283 283 283 283 283 284 284 284 284 285 285 284 284 284 285 285 284 284 283 283 283 282 282 282 282 282 283 282 283 282 281 280 281 282 282 283 283 283 283 283 284 284 284 285 285
279 279 279 279 278 278 278 278 278 278 278 278 278 278 278 279 279 279 279 279 279 279 279 279 279 279 280 280 280 280 280 281 281 281 281 281 280 281 281 282 282 283 283 283 284 283 283 283 284 284 284 283 284 284 284 284 284 284 284 284 284 284 283 283 282 282 282 281 283 281 281 280 281 280 281 281 281 282 281 282 283 283 283 283 284
278 279 278 279 278 277 277 277 277 277 278 278 278 278 279 278 279 279 278 279 279 279 279 279 279 279 279 279 279 279 280 280 280 280 280 280 280 280 281 281 281 282 282 283 283 283 283 283 283 284 283 283 283 284 284 284 284 284 284 284 284 284 283 283 283 282 282 282 282 282 280 280 280 279 280 281 281 281 280 281 281 281 281 281 281
278 278 277 277 277 277 277 277 277 277 277 278 278 278 278 278 278 278 279 278 278 278 278 278 279 279 279 279 279 279 279 280 280 280 280 280 280 280 280 280 280 281 281 282 282 282 283 283 283 283 283 283 283 283 284 284 284 284 284 284 284 284 283 283 283 282 282 282 282 282 282 281 280 281 280 281 281 282 281 280 279 281 280 281 281
277 277 278 277 277 277 277 277 277 277 277 277 277 277 277 277 277 277 277 277 278 278 278 278 279 279 279 279 279 279 279 279 279 279 279 279 279 279 279 279 280 280 280 281 281 282 282 283 283 283 283 283 283 283 283 283 284 283 284 284 283 283 283 283 283 283 282 282 282 281 282 281 279 279 279 278 279 279 281 280 280 279 279 280 281
276 276 276 276 276 276 277 277 277 277 277 277 278 278 278 277 277 277 276 277 278 277 277 277 277 278 278 278 278 279 279 279 279 279 279 279 279 279 279 280 280 280 280 280 281 281 281 281 282 282 283 284 285 286 285 286 284 283 283 283 283 283 283 283 283 283 282 282 282 282 282 280 280 280 278 277 278 280 280 280 280 281 281 280 280
275 276 276 276 276 276 276 276 276 276 277 277 277 277 276 277 276 276 276 276 276 276 276 276 277 276 277 277 277 278 278 279 280 282 282 280 280 280 280 280 280 280 280 280 280 280 281 281 282 283 284 285 285 286 287 287 287 286 284 284 283 283 283 282 282 282 282 282 282 282 281 281 281 280 280 280 280 280 280 280 280 281 279 279 280
275 274 275 275 275 275 275 275 275 275 275 275 275 275 275 275 274 274 274 274 274 274 275 274 275 275 275 275 275 276 277 277 280 281 282 283 281 280 279 279 279 279 279 279 279 280 280 281 281 282 283 283 283 285 287 287 287 288 288 288 287 284 283 282 282 282 282 282 282 282 282 282 282 282 281 281 280 280 280 280 280 280 279 278 278
274 274 274 274 274 274 274 274 274 274 273 273 273 273 273 272 272 272 272 272 273 273 273 273 273 273 273 273 273 274 274 276 278 279 280 281 281 279 278 278 278 278 279 279 279 279 279 280 280 281 281 281 281 281 283 285 286 287 288 288 288 289 288 285 283 282 282 281 281 281 282 282 282 283 282 281 280 279 280 280 280 280 280 279 280
273 273 273 273 273 273 272 272 272 272 272 271 271 270 270 270 270 270 270 271 271 270 271 270 270 270 270 270 270 271 271 274 276 277 278 279 280 279 277 277 277 277 278 278 278 278 279 279 279 280 281 282 282 281 281 281 284 285 286 287 287 288 289 290 289 286 284 283 282 282 282 282 282 283 284 282 282 280 280 280 280 280 281 280 281
272 271 271 271 272 271 271 270 270 269 269 269 268 268 268 268 268 269 269 268 268 268 267 267 267 267 268 268 268 268 268 271 274 275 276 277 277 277 275 275 276 276 277 277 278 278 278 278 278 278 279 280 280 280 280 280 280 281 281 282 283 284 286 288 288 288 288 285 284 283 284 284 283 284 285 284 282 280 280 280 280 280 280 280 282
270 270 270 270 270 269 269 268 267 267 267 266 266 266 266 266 266 266 266 266 265 265 265 264 265 265 266 266 266 265 265 270 273 274 275 275 276 276 273 274 274 274 275 276 277 277 277 278 278 278 278 278 279 280 280 280 280 280 280 280 281 282 282 282 283 284 285 286 286 285 285 286 285 285 286 285 284 283 283 282 282 281 282 282 282
269 268 268 268 268 268 267 266 265 265 265 265 264 264 264 264 264 264 264 264 264 264 264 264 264 263 264 264 263 263 264 270 271 272 273 274 275 271 271 271 271 272 272 274 276 276 277 277 277 277 277 277 280 282 282 281 280 279 279 279 280 281 281 284 286 286 285 284 285 285 286 287 288 286 286 286 285 285 285 284 283 282 281 279 279
267 267 267 266 266 265 265 264 264 263 263 263 262 262 262 262 262 263 262 262 262 262 262 262 262 262 262 262 262 262 263 266 270 271 272 273 272 269 269 270 270 270 270 271 272 273 274 275 276 276 277 277 280 282 283 283 280 280 280 279 280 280 280 282 285 287 288 288 289 289 289 290 290 291 291 291 288 286 283 281 280 281 280 278 279
266 265 265 264 265 264 264 263 262 262 261 261 261 262 262 262 261 262 261 261 261 261 261 261 261 261 261 261 261 261 262 265 269 270 271 272 272 269 269 269 269 269 270 271 271 272 273 276 276 275 275 275 279 281 282 281 279 279 279 279 278 278 279 281 282 283 287 287 288 288 289 289 290 291 291 291 291 289 283 280 281 282 279 279 278
264 263 264 264 264 263 262 262 262 261 261 261 260 260 260 260 261 261 261 260 260 260 260 260 260 260 261 261 263 262 261 264 268 269 270 271 270 268 268 268 268 268 269 269 271 272 272 273 275 275 275 276 279 281 281 280 278 278 278 278 278 278 279 280 280 280 281 281 282 283 284 286 286 286 286 289 290 289 287 284 284 282 279 279 279
263 263 263 263 263 262 262 261 260 260 260 260 260 260 260 260 260 260 260 260 259 259 259 259 259 259 260 260 261 261 261 262 264 269 270 271 272 269 268 267 267 267 268 268 268 269 270 271 273 276 277 278 279 279 280 280 278 278 279 278 278 278 280 280 280 281 280 281 281 281 282 282 283 283 284 285 286 287 288 286 284 283 282 280 280
262 262 262 262 261 261 260 260 259 259 259 259 260 260 260 260 260 259 259 259 258 258 258 258 258 259 260 260 260 261 261 261 263 268 270 271 271 271 267 267 267 267 267 268 268 268 269 270 271 274 276 277 278 279 280 281 280 278 277 276 278 280 282 280 280 282 281 280 281 281 281 281 281 282 282 282 283 284 286 287 286 285 283 282 281
262 260 260 260 260 259 259 259 259 259 259 259 258 258 259 259 259 258 258 258 257 257 258 258 258 258 259 260 260 260 262 264 262 266 269 270 271 272 268 268 268 268 267 268 268 268 268 268 268 271 274 275 276 277 278 279 279 277 278 281 282 282 279 279 280 280 280 280 280 280 280 280 280 280 281 281 282 283 284 285 286 286 285 284 283
260 260 259 259 258 258 258 258 258 258 258 258 258 258 258 258 258 258 257 257 257 256 257 257 257 257 258 259 259 260 261 261 266 265 269 270 271 272 272 271 273 270 268 267 267 268 269 269 269 272 274 274 275 276 277 278 277 276 279 280 280 281 281 280 280 280 281 281 280 279 279 279 279 280 280 280 281 282 283 283 284 285 285 285 284
258 258 257 258 257 257 257 257 257 257 258 258 257 257 257 257 257 257 257 257 257 256 257 257 257 256 256 257 258 259 260 261 264 267 267 270 271 272 273 273 273 270 269 268 269 269 268 268 269 273 274 275 276 277 277 277 275 278 278 279 279 279 278 278 279 279 280 280 280 279 279 280 280 280 280 281 281 282 282 283 283 284 285 285 284
256 256 256 256 256 257 257 257 257 257 257 257 257 257 257 257 256 257 257 257 256 256 256 256 256 256 256 256 257 259 260 260 261 264 268 270 271 272 272 273 273 273 269 269 269 269 271 274 275 275 276 276 276 276 275 275 276 276 277 277 277 275 275 276 276 277 278 279 280 280 280 280 280 281 281 281 281 281 281 283 283 284 285 284 284
255 256 256 256 256 256 256 256 256 257 257 257 257 257 257 257 257 257 257 256 256 256 255 256 256 256 257 258 258 259 260 261 261 262 264 266 268 270 271 272 272 273 272 271 273 274 275 275 275 275 274 273 271 270 270 271 275 276 276 276 273 274 274 274 274 275 275 278 279 280 281 282 281 281 282 281 280 280 281 281 282 281 281 280 278
255 255 255 256 256 256 256 256 257 257 257 257 257 257 258 257 257 257 256 256 256 256 256 256 257 258 258 259 260 261 262 262 263 263 264 263 264 265 266 267 270 271 269 267 269 268 269 270 269 272 273 275 275 275 274 274 272 272 271 272 272 272 273 274 275 275 276 277 278 280 282 283 282 281 280 280 280 281 282 281 281 280 279 279 278
255 255 255 255 256 256 256 258 258 257 257 257 257 257 257 257 257 256 257 257 257 257 258 258 259 259 259 261 262 263 263 264 264 265 265 266 266 267 266 266 265 265 265 266 267 267 268 270 271 269 269 269 269 269 269 269 270 271 271 272 272 273 274 275 275 275 276 278 278 280 281 281 281 281 281 280 280 280 281 280 280 279 279 277 276
255 254 255 255 255 257 256 256 257 257 257 257 257 257 257 257 258 258 260 261 260 260 260 261 263 264 264 264 263 263 264 264 265 270 270 272 270 269 268 268 268 268 270 273 270 269 269 269 268 269 269 268 268 268 268 268 269 270 270 270 271 272 272 273 273 274 276 277 277 278 279 281 281 281 281 280 280 280 281 280 280 279 277 277 276
254 254 255 255 256 256 256 256 256 257 257 256 257 257 261 264 264 262 261 265 268 269 269 265 266 266 266 266 266 265 265 267 272 274 274 274 274 274 274 274 275 273 274 275 273 269 269 268 268 268 267 267 266 266 267 267 267 268 269 271 271 271 272 272 273 274 275 276 277 278 278 280 280 281 280 280 280 280 280 280 278 279 276 275 275
255 255 256 255 257 257 257 256 257 256 257 257 257 257 257 258 264 266 266 266 268 269 270 270 271 271 268 266 268 272 272 273 273 273 274 274 274 274 274 274 275 275 275 271 270 269 268 267 267 267 267 266 266 266 267 267 268 268 269 270 271 271 272 272 272 273 274 275 277 278 279 280 280 280 280 279 279 279 278 279 278 277 276 275 274
254 255 256 256 257 257 256 256 256 256 256 257 256 256 256 255 256 262 266 266 267 268 269 269 270 270 270 270 268 267 270 272 273 273 273 273 273 273 274 274 274 275 275 274 269 267 266 265 265 265 265 265 266 266 267 267 268 268 268 268 269 270 271 271 272 273 273 274 276 278 278 279 280 280 279 279 278 278 277 276 276 276 275 275 275
254 255 255 256 256 256 256 256 256 256 256 256 255 256 255 255 255 255 258 265 266 267 267 268 268 269 270 270 271 271 271 272 273 273 273 273 273 273 274 274 274 275 274 269 265 264 264 264 263 264 264 264 265 265 266 267 267 268 268 268 268 269 270 271 273 272 273 273 275 276 278 279 279 279 279 279 277 277 276 275 275 275 275 274 274
254 254 255 255 256 256 256 256 256 256 256 256 255 255 255 255 255 256 256 256 258 262 264 265 266 268 268 269 270 270 271 271 272 272 273 273 273 273 273 271 273 273 270 265 263 263 263 263 264 265 265 266 266 267 267 268 268 268 269 269 269 270 270 272 272 272 273 274 275 277 278 279 279 279 278 278 277 277 276 275 275 274 273 273 273
254 255 257 257 256 256 256 256 256 256 256 255 255 256 256 256 257 256 256 255 256 256 257 259 263 267 265 266 268 270 270 271 271 272 272 273 273 273 272 266 264 264 264 264 263 263 263 264 264 265 266 266 267 267 267 268 268 268 269 269 269 270 270 271 272 273 273 274 275 277 278 279 279 278 277 276 275 275 275 274 274 274 273 273 273
254 255 255 256 255 256 256 256 256 256 255 256 256 257 257 256 256 256 257 257 257 257 257 258 259 263 267 267 268 268 269 270 271 271 272 273 272 271 264 262 262 263 264 264 264 265 266 266 266 266 267 267 267 268 268 268 269 269 270 270 269 270 270 270 272 272 273 274 275 277 277 276 277 277 277 276 275 275 274 273 273 273 273 273 273
253 254 254 255 255 256 256 256 255 256 257 257 256 256 256 256 256 256 256 256 257 257 257 257 258 258 262 261 262 266 268 269 270 271 270 270 269 265 263 263 263 263 264 264 264 264 264 265 266 266 266 265 266 266 267 267 268 269 270 270 270 270 269 270 271 272 273 273 275 276 275 273 274 275 276 275 275 275 274 274 273 272 272 272 272
253 254 254 255 256 256 256 256 256 257 256 255 255 255 255 255 256 256 256 256 257 256 256 256 258 257 257 258 261 261 262 267 268 267 265 265 262 261 262 262 262 262 262 262 262 262 263 263 264 264 264 265 265 266 267 268 269 269 270 270 270 270 272 271 272 272 273 274 274 275 275 274 274 275 275 274 274 273 273 273 272 271 271 271 271
253 256 257 257 258 257 256 255 255 254 254 255 254 255 255 255 255 255 255 255 255 255 256 256 256 256 257 259 259 261 263 262 260 259 259 259 260 260 260 260 260 260 260 260 260 261 261 261 262 263 263 264 264 265 266 268 270 270 271 271 270 270 270 270 271 272 272 273 274 274 273 272 273 275 275 275 274 273 273 272 271 271 270 270 270
254 254 255 256 255 255 255 255 254 254 254 254 254 254 255 255 255 255 255 254 254 255 255 255 256 256 258 259 260 262 261 260 259 258 258 258 258 258 258 258 259 259 259 258 259 259 260 260 261 262 262 262 263 265 267 268 270 272 272 271 271 271 271 271 271 272 272 273 274 273 272 272 274 275 275 275 274 273 272 271 271 271 271 270 270
252 253 254 255 256 254 254 254 253 253 254 254 254 254 254 255 255 255 254 254 254 255 255 255 256 257 258 261 265 265 261 259 258 258 258 258 258 258 258 258 258 258 258 258 258 259 259 260 261 261 261 262 264 265 266 267 269 271 272 272 272 272 272 273 273 273 274 274 274 274 273 273 272 272 272 273 274 273 272 271 271 270 270 270 270
253 253 253 252 253 252 252 253 253 254 254 254 254 254 254 255 254 254 254 254 254 255 255 255 256 256 259 264 264 265 260 258 258 258 257 257 257 257 258 258 258 258 258 258 258 258 259 259 260 261 261 262 263 264 265 266 267 268 271 272 273 273 273 273 274 274 274 275 275 274 273 271 271 272 273 274 272 271 270 270 270 269 269 269 269
253 253 252 252 252 252 252 252 253 252 253 253 253 255 255 254 253 254 253 254 254 255 255 255 255 256 257 262 261 262 258 257 258 257 257 257 257 257 257 257 258 258 258 259 259 259 259 259 260 260 261 262 262 263 264 265 266 266 268 269 270 270 270 271 272 272 273 273 272 271 271 272 272 271 271 270 270 269 269 269 268 268 268 268 268
251 252 252 252 252 252 252 252 253 253 253 254 255 254 254 253 253 252 252 253 253 254 255 255 256 256 256 257 258 257 257 257 257 257 257 257 257 257 257 257 258 258 258 258 259 260 260 260 260 260 261 262 263 263 264 265 265 266 266 267 268 268 268 268 268 269 270 270 269 269 270 270 270 270 269 269 269 268 268 268 268 267 267 267 268
250 250 251 250 251 251 252 252 252 252 253 253 251 251 253 252 252 252 253 253 254 254 255 255 256 256 256 256 256 256 256 256 257 257 257 257 257 257 257 258 258 258 259 259 260 260 260 260 261 261 261 262 263 263 264 265 265 266 266 266 266 266 266 266 267 268 269 269 268 268 268 268 268 268 268 268 268 268 267 267 267 267 267 267 267
250 250 250 250 251 251 251 251 252 251 251 251 250 250 251 251 251 252 253 253 254 254 254 255 255 256 256 255 256 256 256 256 256 257 257 257 257 257 258 258 258 259 259 260 260 260 261 261 262 262 262 262 263 264 264 265 265 266 266 266 266 266 266 266 267 267 268 268 268 268 267 267 267 267 267 267 267 267 267 267 267 267 267 267 266
248 249 250 250 250 251 251 251 250 251 250 250 250 251 251 251 252 252 253 254 254 254 254 254 254 254 254 255 255 255 256 256 256 257 257 257 257 257 257 258 258 258 259 259 260 261 261 262 262 263 263 263 264 264 265 265 266 266 266 266 267 266 266 267 266 267 267 267 267 267 267 267 266 266 267 267 267 266 266 266 266 266 266 266 266
248 249 249 250 249 249 249 249 250 251 250 250 250 251 251 252 251 252 252 252 252 253 253 253 253 253 254 254 255 255 255 255 256 256 257 257 257 257 257 257 258 258 258 259 259 260 261 262 263 263 264 264 264 264 265 265 266 266 266 267 267 267 267 266 266 266 266 265 265 265 265 265 265 266 266 266 266 266 266 265 266 266 266 266 266
249 249 248 249 249 249 249 249 249 248 248 249 250 250 250 250 251 251 251 251 252 252 252 252 252 253 253 254 254 254 255 255 255 255 255 256 256 257 257 257 258 258 258 258 259 260 260 262 263 263 264 265 265 266 266 266 266 266 266 266 266 267 267 267 266 265 265 265 265 265 265 265 264 265 265 265 265 265 265 265 265 265 265 266 266
248 249 248 249 248 248 248 248 247 247 248 248 248 249 250 250 250 250 251 251 251 251 251 252 252 252 252 253 253 253 254 254 254 254 255 255 256 256 257 257 257 258 258 258 259 260 261 261 262 263 264 264 265 266 267 267 267 267 267 267 266 266 266 266 267 266 265 264 265 265 265 264 264 264 265 265 265 265 265 265 265 265 265 265 265
248 248 248 247 247 248 247 246 247 247 246 248 248 248 249 249 249 249 250 250 250 251 251 251 251 252 252 252 253 253 253 253 254 254 254 254 255 255 255 256 256 257 257 258 259 259 260 261 262 263 264 264 265 266 267 267 268 268 268 268 268 267 266 266 266 266 267 266 265 265 264 264 264 264 264 264 265 264 264 264 264 264 264 264 264
Wind_Speed
4 4 5 5 5 5 4 4 4 4 5 4 4 4 5 5 5 5 5 6 4 6 6 6 5 6 6 7 7 7 7 8 6 6 6 7 7 6 7 8 7 8 6 8 6 5 6 8 9 9 8 8 8 8 7 7 6 7 7 7 8 7 8 10 14 18 9 5 4 6 7 7 6 8 10 10 8 9 11 11 11 10 11 11 12
1 2 2 2 2 3 4 4 3 4 4 5 5 6 6 7 6 6 7 7 6 8 8 7 6 6 7 8 8 7 7 7 8 6 7 7 7 6 7 7 8 8 7 8 8 7 6 7 9 9 8 9 9 8 8 8 7 7 7 7 8 9 7 9 13 13 17 6 7 4 4 5 10 5 11 12 11 9 11 12 10 11 11 11 11
2 1 1 2 2 3 3 3 3 3 4 4 5 6 6 6 6 6 7 8 7 6 7 8 9 9 9 9 9 9 9 8 7 7 8 8 9 9 7 8 8 9 9 8 8 8 9 9 9 8 7 8 9 8 8 8 8 8 9 7 9 9 8 10 11 14 15 12 6 8 6 5 10 9 10 11 12 12 13 13 12 11 11 12 12
3 2 2 3 2 2 3 3 3 3 3 3 4 5 5 5 5 5 6 6 8 7 6 7 7 8 9 10 10 10 11 10 10 9 9 8 9 10 10 9 9 9 10 10 9 8 8 10 10 9 8 9 10 9 8 8 8 8 9 8 8 9 8 8 11 12 12 13 9 8 5 7 9 7 5 8 9 9 11 10 9 11 10 9 11
3 4 2 2 3 3 4 4 4 4 4 4 5 5 5 6 5 6 7 8 7 6 7 5 6 7 8 10 11 11 11 11 11 12 11 9 10 10 11 10 10 10 10 10 10 9 9 10 11 9 8 9 10 9 9 10 9 9 10 9 9 9 7 9 10 10 12 14 12 6 6 7 6 5 6 8 7 8 6 10 11 12 11 10 8
3 3 1 1 3 3 4 4 5 5 5 5 6 6 6 6 6 6 5 7 8 7 8 8 7 9 9 8 8 9 10 11 12 12 12 11 11 11 11 11 12 12 11 11 10 9 10 11 11 9 9 10 11 10 9 11 10 10 11 10 9 8 9 9 9 10 11 14 12 11 6 8 6 7 7 9 9 9 8 8 6 7 8 8 9
4 2 2 1 2 3 3 4 4 4 5 6 5 5 6 6 7 7 7 7 8 8 7 8 8 8 10 10 10 11 11 10 10 11 11 10 10 12 13 13 12 11 12 12 12 11 11 11 12 11 11 11 12 12 11 11 10 11 11 11 9 9 10 10 10 11 12 13 12 11 11 8 9 11 7 8 10 11 12 10 10 8 6 10 11
2 1 1 1 2 4 4 4 4 4 4 4 4 4 5 5 6 6 6 7 8 8 9 10 10 9 10 10 11 10 10 11 11 11 10 10 11 11 11 12 13 13 13 13 12 12 13 13 12 12 13 12 12 12 11 11 10 11 10 9 9 10 11 10 10 10 11 12 12 12 10 10 7 8 1 5 8 9 10 9 12 10 11 11 12
4 4 4 5 4 4 4 4 4 5 6 7 7 8 7 7 6 6 5 6 7 7 8 9 11 12 11 10 11 10 10 11 9 9 10 12 12 13 13 14 14 14 14 14 14 13 12 12 13 13 14 16 20 18 16 14 10 11 11 10 10 11 10 9 10 10 11 11 12 11 10 10 10 9 8 9 13 15 6 7 11 12 9 8 10
4 4 5 4 5 5 6 5 6 6 8 9 8 8 8 8 8 8 9 9 9 9 10 10 10 11 12 12 11 10 10 9 11 19 20 14 13 12 12 13 13 13 15 15 15 15 15 14 13 19 20 21 21 22 22 22 21 17 14 11 10 11 10 11 11 10 10 12 12 11 11 12 12 11 11 12 9 4 7 12 14 9 5 10 10
4 4 5 4 5 5 5 6 7 8 7 8 8 9 9 9 10 10 10 10 11 11 10 11 11 10 11 11 12 11 11 11 23 25 25 28 19 14 14 14 14 15 14 15 16 16 15 15 14 16 18 17 17 21 22 24 23 24 25 24 19 14 11 12 12 11 11 12 12 11 12 14 15 10 11 10 8 11 11 10 11 9 11 12 15
4 4 4 5 5 7 7 7 8 7 7 8 8 8 9 10 11 11 12 12 12 11 12 11 12 11 10 11 12 12 12 19 26 26 27 28 25 18 15 15 14 14 14 15 14 14 15 15 13 13 13 14 14 14 17 21 23 25 26 25 25 25 23 16 14 12 12 12 13 14 12 14 14 10 9 9 9 8 10 10 12 13 13 13 14
5 5 5 5 6 5 6 7 7 7 6 6 8 9 10 11 11 11 12 12 12 12 12 13 12 11 11 13 12 13 13 20 24 26 26 26 27 23 14 14 14 13 14 14 14 15 14 14 12 12 11 18 17 15 15 15 17 24 25 26 26 25 22 26 26 19 13 14 13 15 14 13 15 12 10 9 7 12 11 12 12 12 12 14 15
4 5 4 5 5 5 5 5 5 6 6 8 8 9 9 10 9 9 10 11 11 12 13 13 14 13 13 13 13 14 15 19 25 27 27 27 27 24 15 14 15 15 16 15 15 13 14 14 13 13 11 13 13 15 16 16 15 14 14 14 14 18 22 25 26 27 24 17 15 17 16 14 15 13 11 7 11 12 11 13 11 12 13 16 14
4 4 4 4 4 4 6 5 6 7 7 8 8 9 9 10 10 9 9 10 10 12 11 12 11 11 11 12 12 16 15 24 25 26 25 25 26 23 16 14 12 14 15 16 15 15 15 15 15 16 15 13 13 15 17 17 16 16 15 14 14 15 15 15 15 15 15 15 16 18 19 17 15 15 13 10 13 12 13 13 14 14 14 13 11
4 3 3 3 4 5 6 6 6 7 8 8 8 10 9 9 10 9 10 10 9 9 10 10 11 13 11 11 12 15 15 23 24 25 25 25 27 16 14 15 14 14 15 15 13 14 14 15 15 17 17 18 20 31 28 20 17 17 18 18 16 15 15 12 17 16 16 15 15 16 16 17 16 15 14 12 11 11 9 9 9 10 11 12 14
4 3 3 3 4 4 5 5 6 7 7 9 10 10 10 11 9 7 10 10 10 9 10 9 10 10 13 11 12 14 15 19 24 26 25 27 21 13 14 12 13 13 14 15 18 17 16 15 16 14 15 15 22 29 30 28 19 19 18 18 17 15 16 14 18 22 24 26 25 23 23 23 23 21 21 24 17 11 8 9 12 9 12 13 14
3 2 3 3 4 5 5 5 7 8 7 9 10 10 9 9 9 7 9 11 11 9 9 10 8 9 11 13 11 15 15 18 25 25 26 26 22 16 13 13 15 15 13 12 13 13 16 27 24 17 17 18 26 31 31 26 20 19 18 18 18 17 17 15 13 12 18 24 27 28 28 27 26 26 24 24 25 19 12 15 12 11 14 13 16
2 3 4 4 5 5 5 5 6 8 9 9 9 11 10 10 9 8 8 9 11 9 10 10 9 8 9 12 18 19 15 17 23 24 26 25 20 14 14 14 15 15 15 17 15 14 15 16 25 24 23 24 33 31 31 26 20 19 19 18 19 19 18 16 16 15 13 12 14 15 17 21 20 18 17 24 25 21 16 15 12 13 13 14 14
2 3 4 5 5 5 5 6 7 7 10 10 9 10 9 9 9 9 9 8 10 9 9 9 12 10 9 11 11 12 14 13 16 26 24 25 24 16 12 13 13 15 14 14 15 14 16 16 18 24 28 29 30 32 32 33 23 18 17 17 18 21 16 16 17 15 15 15 15 14 16 14 14 13 12 13 16 16 17 15 14 13 13 14 14
4 4 5 5 5 6 6 6 9 9 8 10 10 9 8 9 10 10 10 9 8 10 10 10 11 11 9 9 10 11 11 14 14 24 25 25 26 22 12 13 13 13 13 14 13 14 12 12 13 19 25 27 28 29 29 28 27 21 19 18 18 19 20 16 16 20 16 16 16 15 14 13 13 12 11 11 12 12 13 15 14 14 14 14 14
4 4 5 6 6 7 7 7 7 8 8 8 10 11 9 9 9 10 9 9 11 11 10 10 9 10 9 10 10 11 12 20 16 20 25 25 25 27 17 13 15 14 15 13 14 13 15 15 14 19 27 28 29 30 32 31 33 21 19 28 34 36 27 21 19 17 16 15 14 14 14 13 13 12 11 11 11 11 12 13 14 15 15 15 16
4 4 5 7 7 8 7 8 9 7 8 8 10 12 10 9 9 8 10 11 10 11 9 10 9 10 9 8 8 10 11 12 21 19 23 26 26 26 27 23 27 19 14 14 13 15 13 13 14 24 27 28 28 29 30 33 30 23 32 32 31 33 28 18 17 17 17 16 15 15 14 13 13 13 12 11 11 11 11 11 13 13 14 14 15
4 5 6 7 7 7 7 8 8 7 8 9 9 10 11 10 9 8 9 9 9 10 9 8 9 9 10 10 9 10 11 11 15 23 22 26 26 27 27 28 27 17 15 13 12 12 13 13 16 28 29 29 31 30 29 28 22 32 33 35 34 30 19 18 16 16 15 16 16 15 15 14 13 13 12 11 11 11 11 10 10 11 12 11 13
5 6 7 7 7 7 7 7 8 8 8 8 9 10 11 9 10 8 8 9 9 10 10 8 9 10 10 10 10 10 10 11 11 16 24 25 26 27 27 28 27 27 19 13 14 14 20 31 32 30 30 30 31 30 25 25 29 29 31 30 29 15 13 13 14 15 15 16 15 14 14 14 14 13 12 11 9 8 8 8 10 10 10 11 10
5 7 7 7 7 7 8 8 7 8 8 7 8 8 10 10 9 10 9 9 9 10 10 9 9 10 11 11 11 11 11 10 11 10 12 17 19 25 29 28 28 27 26 20 27 32 31 31 33 32 29 25 19 13 12 14 24 29 30 29 16 12 12 11 15 15 16 15 18 17 15 13 13 12 11 9 9 10 9 10 9 9 8 8 7
7 6 7 7 7 6 7 7 8 7 6 7 7 8 8 8 9 9 9 10 10 10 11 10 10 10 11 11 12 11 10 9 9 9 10 10 11 14 15 16 23 26 19 15 19 18 21 22 19 24 23 29 29 27 25 25 19 16 12 11 11 13 13 13 13 15 16 16 16 17 15 12 10 10 10 9 10 11 10 10 9 10 9 8 9
6 7 8 7 7 6 7 8 9 8 7 7 8 9 8 7 8 9 10 10 10 11 11 11 11 13 9 10 11 10 10 10 10 11 12 11 11 10 10 10 10 10 12 13 14 15 15 18 21 17 15 14 14 11 11 11 12 12 10 11 11 13 16 23 23 17 16 16 17 16 15 13 12 11 10 11 11 10 9 10 10 10 8 7 7
6 7 7 6 7 6 6 7 7 8 8 8 7 8 10 9 9 10 11 9 9 11 10 11 10 11 10 11 10 9 10 11 10 15 17 22 19 15 11 10 10 10 13 22 16 11 10 10 9 10 10 11 11 10 10 9 11 11 13 11 11 11 12 10 13 13 15 15 16 16 16 13 12 11 11 11 11 11 9 9 9 10 7 8 11
5 6 6 6 7 6 6 7 7 7 8 9 9 9 12 20 16 12 11 19 27 27 23 15 13 11 10 10 9 11 11 12 24 30 28 28 29 30 28 27 26 21 24 30 20 11 9 9 9 10 10 9 10 10 10 9 10 11 10 14 14 12 11 12 12 13 14 17 16 14 15 14 13 12 11 11 10 9 9 11 10 9 8 9 10
6 6 6 6 7 8 7 7 7 7 7 8 8 10 11 13 20 23 21 22 24 26 25 27 27 25 17 12 13 24 26 28 28 28 29 29 29 29 29 27 28 29 28 18 11 8 9 9 10 10 11 10 10 12 11 11 10 11 11 9 11 13 13 11 12 12 14 16 18 16 14 15 14 11 12 11 11 9 7 8 8 9 10 10 10
6 7 7 7 8 8 7 7 8 8 8 7 8 9 10 12 15 19 22 21 23 24 25 25 24 22 23 21 18 12 19 25 28 28 29 29 28 29 29 29 27 26 25 24 12 10 9 9 10 10 9 10 12 11 12 12 12 11 11 12 11 11 11 12 11 12 13 14 14 16 13 12 12 10 9 10 9 9 8 8 8 8 9 8 10
6 7 7 8 8 8 8 7 7 7 8 9 9 9 9 10 12 15 18 22 23 20 21 22 20 20 23 24 25 23 23 24 27 27 27 28 29 28 29 29 26 25 25 13 8 11 9 10 10 11 11 11 12 12 13 13 13 12 12 12 12 12 12 12 13 12 14 14 14 14 13 12 12 11 9 9 9 9 9 9 9 9 9 9 9
6 6 6 7 8 7 7 7 7 8 8 8 8 9 9 9 10 11 14 16 20 21 16 11 14 20 23 25 25 25 25 26 26 27 27 27 29 28 26 18 21 22 18 10 8 9 10 10 11 11 12 12 11 12 12 12 11 12 11 11 12 11 14 11 11 11 10 12 12 13 14 13 10 10 10 9 9 10 9 9 9 9 9 10 10
5 7 12 9 6 7 7 7 7 8 8 8 8 9 9 9 9 11 11 12 13 14 17 20 21 21 19 19 22 26 26 27 27 26 27 27 26 27 24 12 11 11 11 8 9 9 10 11 11 12 12 12 12 12 12 13 11 12 11 11 10 12 11 11 9 10 10 10 11 13 10 9 9 10 9 8 8 9 9 9 9 10 10 9 9
5 5 5 6 6 6 6 6 7 7 8 8 8 8 9 9 10 10 10 10 10 12 14 13 14 21 28 24 25 25 28 28 27 27 26 25 24 24 12 11 11 10 10 9 9 10 10 10 11 10 11 11 13 12 13 12 12 11 10 11 11 11 11 10 10 9 10 10 11 12 9 5 4 6 7 9 10 9 8 8 9 9 10 10 9
5 5 5 5 5 6 6 6 6 7 9 9 9 9 9 9 9 9 10 10 10 11 11 12 14 17 19 11 14 24 27 26 26 25 24 22 23 14 9 9 9 10 9 10 10 11 12 11 10 12 13 14 14 14 15 15 15 14 14 12 11 10 11 10 10 9 9 10 10 9 7 4 4 5 6 8 9 9 9 9 9 9 9 10 9
5 5 5 5 6 7 6 6 7 10 8 7 7 7 8 8 9 9 10 10 11 11 11 11 11 11 13 16 19 14 18 23 25 18 15 16 13 9 9 10 10 10 11 10 11 10 10 11 10 12 12 12 12 13 15 14 12 10 11 10 10 10 15 14 15 13 11 10 10 10 8 6 6 6 6 5 5 6 7 8 8 8 7 8 8
4 8 11 13 10 7 5 6 7 7 7 6 6 8 9 9 9 9 9 9 9 9 10 10 9 10 10 11 13 15 17 12 11 12 12 10 8 8 9 9 9 9 9 9 11 11 10 11 13 12 12 11 14 13 12 14 13 11 9 8 8 8 9 9 9 9 9 9 9 7 6 5 4 5 7 7 6 7 7 7 8 8 9 9 9
4 4 7 11 6 7 6 7 6 6 7 7 7 7 7 8 8 8 9 9 9 9 9 10 10 10 11 11 11 11 12 12 11 10 10 11 10 10 9 9 10 9 11 11 11 10 11 11 9 12 12 14 13 13 14 14 14 11 8 7 7 8 9 9 9 8 8 8 8 6 5 5 6 5 6 8 8 7 7 8 8 8 8 9 8
4 5 5 6 8 6 5 6 5 6 6 7 7 7 7 8 8 8 8 8 8 9 9 9 9 10 11 15 23 21 10 9 11 10 10 11 11 11 10 10 9 11 10 10 10 10 9 10 11 12 13 13 12 13 14 14 14 13 7 7 7 8 8 8 9 8 8 8 7 7 6 6 6 6 6 5 4 6 7 7 7 7 7 6 7
4 4 4 4 6 4 5 6 7 7 7 8 7 7 8 8 7 7 8 8 9 9 9 9 9 9 14 25 21 23 12 8 8 10 9 9 9 9 9 9 8 9 9 10 10 10 11 11 11 11 11 13 13 13 13 13 13 13 11 8 6 6 7 8 8 8 8 8 7 6 5 5 5 6 7 6 6 5 5 5 6 6 6 6 6
4 4 4 5 4 4 5 5 5 5 6 6 6 7 8 8 7 8 7 8 7 8 8 9 9 9 10 17 19 19 8 7 7 9 9 9 9 9 9 9 9 9 9 9 9 9 10 10 11 11 10 11 11 11 12 12 12 12 11 9 7 6 6 6 6 4 3 4 4 3 3 3 4 4 4 5 5 5 6 6 6 6 6 6 6
3 4 5 4 5 4 5 4 5 5 5 7 8 8 7 7 6 6 6 6 7 7 7 8 8 9 9 11 11 9 8 9 8 8 9 9 9 9 10 9 10 9 9 9 9 9 9 10 10 10 10 10 10 10 10 10 10 9 10 10 8 8 7 7 6 6 6 4 3 3 3 4 4 5 5 5 6 7 6 6 6 6 6 6 7
3 3 4 5 4 4 4 3 4 5 7 7 5 6 7 5 6 6 6 6 8 8 7 7 8 8 9 9 9 9 9 8 9 9 9 9 9 10 10 10 10 10 10 10 9 10 9 9 9 10 10 10 9 9 9 9 9 8 9 9 8 7 7 6 5 4 4 5 4 4 4 4 4 4 5 5 5 6 6 6 6 7 7 6 7
2 3 5 4 5 5 5 4 5 5 5 5 6 6 6 6 6 6 7 7 7 7 7 7 7 7 8 8 8 9 9 9 8 8 9 9 9 10 9 10 10 10 10 10 10 10 10 10 9 10 10 10 11 10 10 10 10 10 10 9 9 8 8 7 6 5 5 5 5 5 5 5 5 4 5 5 5 5 5 6 5 5 5 6 6
2 3 4 4 4 5 6 6 5 5 5 5 5 5 6 6 6 6 7 8 8 8 7 7 7 8 8 8 8 9 9 9 9 9 9 9 9 10 10 10 10 10 10 11 11 10 11 11 10 10 10 10 10 11 10 10 10 9 9 8 8 8 7 7 7 6 6 6 5 5 6 5 5 5 6 6 6 6 6 5 5 6 5 5 5
3 4 3 4 3 4 4 4 5 6 6 6 5 6 6 6 6 7 7 7 7 7 7 7 7 7 8 8 8 8 8 8 8 9 8 9 9 9 10 10 10 10 10 10 11 11 11 11 11 11 11 11 10 9 10 9 9 9 9 8 8 9 10 9 7 7 6 6 6 6 6 6 6 6 6 6 6 6 6 6 6 5 6 5 5
3 4 4 3 3 3 4 4 6 5 5 5 6 6 7 6 6 6 6 6 6 6 6 7 7 7 7 7 8 8 8 9 8 9 9 9 9 9 10 10 10 10 9 10 10 11 11 11 12 12 12 12 11 10 8 9 9 9 9 8 11 16 14 13 8 7 9 7 7 7 7 7 7 7 7 7 7 7 7 7 6 6 6 6 5
3 4 3 3 3 3 5 4 5 5 5 5 5 5 6 6 6 6 7 6 6 6 6 6 7 7 7 8 9 9 8 8 9 9 9 9 9 9 9 10 10 10 9 10 10 10 10 11 11 11 12 12 12 12 10 9 8 8 7 9 15 15 14 15 14 13 9 6 7 7 7 7 8 7 7 7 7 8 8 7 7 6 6 6 6
4 3 3 3 3 3 3 3 5 5 4 4 5 5 6 6 6 6 6 6 7 7 6 7 7 7 7 7 8 8 8 8 7 8 8 8 9 9 9 10 10 10 10 10 10 10 10 10 10 11 11 11 11 11 11 11 10 11 12 14 15 15 15 13 10 13 15 11 7 7 7 8 8 8 7 7 7 8 8 8 7 7 7 7 7
Wind_Direction
3 353 1 354 6 354 344 355 347 356 353 360 354 337 336 333 334 328 327 333 332 332 333 330 326 326 323 323 319 315 313 311 312 312 314 310 310 306 307 310 309 303 301 300 290 272 269 273 275 272 271 270 267 266 264 251 241 240 239 242 248 241 235 249 258 268 263 240 234 228 231 216 239 208 217 219 217 217 215 220 218 215 216 217 220
301 298 324 340 332 327 326 325 334 344 354 339 342 334 330 331 324 334 332 319 334 327 328 325 321 320 322 319 319 313 308 305 306 306 301 301 299 299 302 301 297 294 294 293 295 293 277 273 276 277 268 263 266 265 260 262 250 246 239 230 242 246 224 242 257 263 271 249 270 254 274 197 236 193 208 211 217 209 216 218 216 213 214 215 217
250 234 290 332 323 323 325 324 339 336 348 326 331 324 321 320 320 323 315 314 319 318 315 319 318 321 318 314 313 312 309 309 307 306 303 302 298 295 290 290 290 289 288 280 280 285 290 282 276 275 275 272 267 260 259 257 253 249 250 230 241 243 233 229 251 261 266 267 230 249 222 224 215 221 209 218 217 209 213 214 211 213 216 214 216
257 288 314 317 311 338 325 323 341 321 323 297 311 304 311 307 305 306 295 302 304 303 309 305 304 304 304 304 306 307 309 308 308 305 300 299 298 295 292 286 282 279 278 280 279 276 273 281 281 275 274 274 273 269 261 256 253 252 252 246 240 246 234 234 235 252 265 271 245 232 222 218 238 241 223 228 221 219 218 222 218 221 219 218 220
239 253 241 293 310 339 319 325 331 316 305 302 295 297 301 303 306 306 309 306 299 299 298 294 292 293 292 297 302 303 302 303 302 301 300 297 295 295 294 291 286 281 277 275 274 273 273 268 272 275 272 271 272 269 264 260 255 253 253 250 245 243 238 233 242 241 256 258 264 229 234 232 244 227 210 213 227 232 230 223 217 219 218 218 222
219 231 275 312 312 328 317 332 317 307 302 302 298 300 303 302 300 298 295 293 295 297 298 303 298 295 291 284 281 282 288 293 295 296 297 300 298 295 293 291 291 290 287 281 273 268 270 270 268 264 263 263 265 265 263 262 260 256 255 254 248 245 245 241 239 245 247 256 256 260 229 238 244 231 204 201 210 220 231 233 235 226 217 220 222
350 8 3 7 329 319 313 306 296 296 295 289 294 299 298 299 301 298 298 295 294 295 293 291 292 287 289 291 289 288 288 283 281 281 284 287 290 292 294 292 287 286 285 286 285 281 272 268 268 265 260 256 259 259 260 262 260 257 254 256 250 249 249 246 243 243 247 255 257 247 252 232 224 243 217 197 212 213 215 214 227 220 217 215 223
71 88 93 26 9 348 339 317 307 301 295 293 292 292 294 296 294 292 298 297 295 294 296 297 296 295 291 290 288 287 286 286 285 285 286 288 287 284 284 286 288 287 284 280 278 277 278 275 270 264 259 257 257 258 253 255 256 260 257 253 251 248 249 251 248 246 249 252 253 257 244 246 231 245 156 171 221 237 223 207 220 214 215 219 220
33 26 19 11 351 329 326 327 326 331 329 333 336 333 330 324 318 314 307 299 296 293 294 295 298 297 296 292 292 290 286 283 285 287 291 292 289 288 288 286 286 286 285 286 284 279 273 269 267 267 261 258 257 257 256 251 251 259 255 250 249 250 249 250 248 247 250 252 257 252 252 244 236 222 211 210 211 225 188 186 228 223 211 221 236
29 12 9 351 341 338 335 333 337 339 342 339 334 328 325 325 324 322 316 311 307 304 301 300 298 299 300 299 295 294 291 290 287 292 295 294 293 291 289 288 287 286 286 286 283 281 279 275 269 264 264 264 262 260 260 260 255 250 255 251 244 247 245 247 247 245 248 252 252 253 250 249 241 226 227 226 226 201 175 200 221 215 168 224 238
17 10 349 345 336 335 338 341 345 344 337 331 326 329 328 326 323 318 314 311 309 308 307 305 302 299 300 301 301 299 297 298 300 301 302 301 300 299 296 293 289 286 283 280 280 280 279 278 277 277 274 269 265 263 260 259 260 260 256 252 247 243 246 244 243 241 244 248 253 251 250 254 250 233 226 230 210 206 213 206 216 204 204 207 231
4 355 346 342 345 348 345 341 339 332 333 327 329 329 327 324 322 319 316 315 314 311 308 306 306 309 308 307 302 299 297 298 301 304 303 301 299 298 296 291 287 282 281 280 279 277 276 276 276 277 274 272 270 268 265 262 260 259 260 260 255 248 242 238 243 246 239 245 247 246 247 248 256 244 232 221 216 208 219 213 212 211 214 220 229
355 350 348 345 339 341 340 334 329 329 330 333 328 326 323 318 315 317 314 314 316 313 312 315 310 313 313 308 304 303 301 304 307 307 304 302 300 297 292 288 284 280 277 275 275 276 277 275 272 268 270 271 271 270 270 268 262 261 259 261 261 257 250 245 242 240 241 243 245 250 240 247 252 247 232 222 194 213 208 219 216 220 222 228 230
353 334 338 336 333 334 334 338 333 330 331 327 323 317 315 309 310 312 310 312 311 309 309 309 309 311 312 311 307 306 303 311 311 309 307 305 301 298 289 284 281 279 277 273 271 270 269 273 275 273 267 267 267 269 269 268 268 265 261 258 257 258 257 253 252 248 242 241 241 248 248 238 245 247 235 199 204 215 212 221 213 221 221 230 234
335 326 329 328 334 342 350 341 329 323 322 317 314 310 308 309 310 311 310 307 310 307 309 309 307 309 310 311 310 305 304 309 310 308 308 307 303 301 292 287 284 280 277 274 272 271 269 268 267 266 268 267 267 270 272 270 270 270 267 260 254 253 252 252 250 250 247 243 242 244 249 246 242 245 241 217 219 221 214 214 210 216 223 235 245
319 319 317 331 355 352 343 326 321 318 314 312 310 307 307 303 306 309 303 298 294 294 295 298 301 305 308 307 303 299 301 307 309 308 309 307 304 300 293 289 286 283 281 280 274 270 266 264 265 267 265 265 264 269 270 273 271 268 266 265 263 256 251 243 245 243 245 244 245 246 248 247 243 238 238 231 231 235 229 228 220 215 217 225 232
308 312 324 355 348 336 327 316 311 309 309 308 304 303 304 304 300 301 295 294 295 296 295 295 300 300 301 299 297 296 299 306 306 307 306 304 304 296 290 282 277 277 278 282 284 285 288 291 291 293 290 286 282 279 277 277 275 270 264 260 259 261 262 258 248 247 249 249 248 246 247 249 247 241 237 237 230 223 222 219 223 209 219 227 235
301 336 342 332 324 319 315 310 304 304 302 297 298 297 297 293 292 297 292 298 295 292 294 294 289 290 292 294 295 297 297 302 304 304 304 301 300 297 294 288 284 282 278 269 270 271 271 275 275 270 270 271 275 275 275 274 270 268 268 267 266 264 264 264 263 254 244 249 253 253 253 253 252 249 243 240 237 226 216 224 220 210 223 221 233
336 336 318 316 311 308 303 300 296 297 295 293 293 294 294 293 292 292 284 285 287 292 293 291 289 285 283 285 295 296 293 297 301 302 301 300 300 294 293 292 291 292 295 294 293 292 290 288 285 283 283 282 280 278 274 271 269 272 273 272 269 265 260 260 261 261 259 254 251 254 255 254 253 249 244 243 239 233 224 226 222 220 221 226 232
328 317 308 305 302 297 295 294 290 289 291 291 288 285 288 291 290 290 287 283 287 290 288 287 289 288 286 286 286 288 290 292 297 300 300 299 299 296 290 288 287 289 288 290 293 288 288 289 288 287 283 281 279 278 276 274 275 275 270 264 259 258 258 256 254 254 257 256 255 249 250 249 251 246 243 239 239 233 231 225 224 222 224 228 226
316 306 304 298 294 291 289 287 289 286 280 286 289 287 286 286 290 289 290 289 281 286 286 286 286 288 287 282 283 285 284 290 293 298 299 299 298 297 288 285 287 288 288 285 284 287 290 292 297 298 298 296 293 292 288 280 272 265 263 267 268 273 276 273 268 260 258 256 254 252 251 247 246 242 237 234 232 229 228 228 226 223 223 228 228
304 299 296 293 291 289 287 285 279 283 287 286 288 287 284 280 282 287 286 287 287 286 287 288 286 287 284 286 283 283 284 289 291 293 296 297 296 295 293 285 285 284 283 280 285 289 292 291 292 291 291 290 291 291 291 293 293 290 276 268 264 263 264 264 266 263 255 249 247 245 246 244 245 240 234 231 230 226 226 225 227 226 223 227 227
293 290 289 288 287 287 287 286 287 285 285 283 283 288 290 290 286 283 285 286 285 287 288 288 289 289 287 281 277 278 279 279 286 288 291 294 296 295 292 291 290 290 288 287 285 284 283 283 284 287 287 288 287 285 284 283 285 284 285 286 287 283 276 266 261 259 254 246 240 239 239 240 240 239 231 231 229 226 227 224 227 227 228 231 232
290 289 285 282 285 285 284 283 279 279 281 284 283 285 290 289 287 285 285 286 292 293 290 289 287 286 289 288 282 279 277 275 277 282 286 289 294 294 294 294 293 289 286 282 286 285 286 279 276 280 281 282 285 288 289 288 281 277 277 282 284 283 281 278 271 266 262 255 245 236 235 234 236 235 232 226 227 224 225 226 229 231 232 234 234
291 286 283 283 283 282 282 279 282 279 278 279 286 289 288 290 293 289 286 290 291 291 288 284 283 284 284 282 280 277 272 269 268 272 279 286 291 293 293 292 293 293 291 285 277 276 280 285 288 290 292 293 292 292 292 291 289 287 284 282 284 283 284 284 280 273 261 256 247 241 235 232 230 232 230 227 226 223 221 226 225 228 230 233 238
288 282 283 283 281 285 288 286 278 275 276 272 270 277 283 292 290 293 292 289 290 288 286 284 277 280 280 278 276 275 271 268 269 266 264 269 272 277 281 284 287 289 288 288 288 289 290 290 290 291 291 288 285 275 263 269 277 281 281 278 276 279 279 276 271 272 268 263 258 248 242 233 229 227 227 222 214 219 216 222 220 224 216 221 229
283 284 284 285 285 283 283 290 293 288 284 282 277 279 283 280 284 288 289 291 288 283 282 281 281 277 279 282 281 277 276 274 275 271 266 261 256 259 265 267 269 272 274 271 272 274 273 274 274 275 277 281 284 287 287 287 287 283 275 267 263 265 269 269 270 270 267 264 263 256 242 233 228 220 221 212 218 220 215 216 217 220 207 214 218
281 284 287 287 287 285 284 283 288 296 292 290 293 292 282 278 281 285 289 288 287 284 282 281 279 280 265 276 282 284 287 287 286 286 282 273 267 262 249 246 249 239 256 261 258 260 263 269 272 273 275 274 273 264 259 260 264 267 263 266 269 269 270 273 275 272 267 264 258 258 248 233 223 220 217 217 219 221 213 211 213 217 205 192 212
281 285 285 288 287 288 285 288 292 293 296 289 276 278 289 290 282 274 270 266 263 269 264 274 273 280 282 286 288 284 289 290 282 292 297 304 302 297 289 280 269 266 265 273 272 262 254 262 257 267 266 272 273 272 271 266 266 265 266 264 262 260 262 257 267 274 274 262 252 250 251 240 229 214 217 217 218 220 207 211 211 211 193 191 211
289 287 287 288 291 294 295 295 295 295 293 296 296 289 280 292 293 294 295 294 294 293 294 292 292 291 289 282 284 292 294 294 303 307 307 303 304 304 304 304 305 302 299 301 306 301 291 282 282 281 281 279 277 275 272 267 268 269 263 270 269 266 263 264 264 269 275 270 253 245 246 246 237 223 213 216 217 218 209 207 208 198 188 196 210
289 289 295 295 298 303 303 300 298 294 293 296 297 300 304 300 298 300 300 299 297 298 299 298 299 300 301 302 301 301 302 305 306 306 307 309 310 310 310 308 307 307 309 312 310 298 297 294 291 286 281 278 277 277 275 274 270 268 268 261 260 264 264 265 269 274 280 279 262 241 236 237 233 220 216 207 212 209 200 200 199 195 198 201 207
293 297 299 299 304 302 297 296 298 297 299 298 299 303 303 306 305 306 308 305 303 303 301 302 304 306 308 308 309 304 304 305 307 309 312 313 310 309 308 309 311 312 312 318 314 308 301 297 292 285 283 281 280 278 277 276 274 269 267 267 264 262 261 262 265 269 274 278 270 246 230 224 222 219 209 205 203 202 187 188 191 198 205 208 209
285 293 296 301 300 300 300 299 299 301 303 306 305 305 304 305 308 313 314 310 308 304 303 305 308 311 315 315 313 311 311 311 313 314 313 313 312 311 310 315 320 320 322 321 311 304 299 293 288 285 283 279 281 278 277 274 272 268 265 264 266 267 264 261 265 268 269 273 278 269 247 231 227 223 215 206 196 197 188 188 193 196 200 203 210
275 281 291 294 297 298 300 298 301 301 299 299 297 299 297 297 300 303 309 315 321 321 314 296 301 315 317 317 316 316 318 318 317 316 316 315 313 313 317 321 323 320 318 310 304 292 292 286 284 282 282 276 275 276 273 270 266 267 263 256 260 261 265 263 258 260 262 270 272 270 249 232 215 213 210 201 195 195 190 191 188 191 199 204 205
275 277 289 294 284 290 294 296 299 298 299 299 298 296 296 300 303 303 304 307 311 312 314 319 321 324 324 320 320 322 322 321 321 319 318 317 318 324 333 332 323 318 316 306 297 291 290 287 286 287 285 282 280 276 273 271 267 264 258 257 254 257 257 257 253 256 261 266 269 268 249 216 197 197 190 185 187 190 192 189 192 193 198 199 200
279 281 284 288 286 280 289 291 294 295 296 295 294 298 302 304 305 300 299 298 297 300 305 311 312 317 322 326 326 326 325 323 321 321 322 327 331 338 334 322 314 308 304 301 296 294 291 291 295 292 295 293 292 287 283 281 274 269 264 262 257 251 253 254 254 255 257 262 267 265 252 228 195 186 188 184 184 190 191 192 194 199 198 199 193
285 285 286 287 282 286 287 284 282 292 302 305 303 302 301 300 297 297 299 299 299 301 304 310 316 318 323 321 325 325 322 321 322 325 331 334 336 338 316 314 309 309 309 316 316 310 307 305 305 302 299 297 294 292 290 282 279 274 272 264 253 249 250 253 255 255 261 264 264 257 246 210 176 183 192 197 192 190 192 194 199 198 199 191 180
277 282 280 293 299 297 293 294 301 309 303 295 295 297 301 302 301 302 301 300 307 311 310 312 316 313 316 318 327 322 319 322 325 327 331 336 337 332 327 321 319 315 314 311 312 308 304 305 302 300 298 298 296 295 292 283 276 265 262 257 250 243 249 254 258 258 259 262 261 253 232 207 180 179 177 201 199 195 191 188 189 189 187 183 182
276 299 308 310 309 307 301 307 310 311 304 302 303 307 308 307 306 302 301 304 308 307 305 307 307 310 312 315 316 313 318 326 339 335 331 329 327 323 319 317 313 311 311 310 312 311 306 305 306 304 300 300 301 295 293 293 286 274 263 255 246 243 248 252 251 250 251 255 261 248 208 192 186 191 186 191 203 199 197 187 186 183 181 185 192
299 303 302 311 309 308 312 311 307 306 305 312 313 311 304 303 301 304 309 311 311 311 311 312 313 313 316 312 309 320 329 333 332 325 322 324 325 325 323 319 319 317 319 316 314 311 308 304 302 304 305 307 303 304 308 309 308 282 262 245 239 243 241 243 247 244 242 242 242 228 208 191 186 198 212 202 191 185 190 187 188 185 186 188 188
283 290 295 306 312 313 309 303 302 303 310 312 309 308 304 306 307 308 307 306 309 310 312 311 310 311 310 320 332 339 344 328 321 321 321 323 323 325 324 322 320 319 315 312 309 306 303 303 306 307 308 302 304 311 315 318 321 314 278 252 241 244 247 245 245 246 248 239 229 219 209 197 183 179 197 206 185 177 184 181 180 182 181 179 172
291 291 299 295 305 306 306 307 304 313 311 310 309 308 309 308 306 306 308 311 311 312 312 311 308 307 316 330 339 344 344 320 320 318 320 320 321 320 319 316 314 311 312 311 311 310 310 308 307 309 308 311 313 315 320 323 325 326 328 320 291 266 257 251 246 243 242 242 234 215 201 193 185 191 193 177 168 158 153 162 162 157 156 159 155
284 290 291 297 303 307 305 302 308 309 312 308 303 307 307 305 304 306 306 306 309 312 313 313 313 317 318 331 339 341 332 323 323 324 322 325 323 321 319 317 316 312 309 306 305 305 304 305 307 310 311 312 313 315 318 319 321 325 326 328 338 347 353 340 326 298 253 213 190 172 165 174 154 141 130 131 134 136 143 145 145 148 150 149 152
295 298 296 297 299 294 293 301 310 309 302 305 309 306 299 296 297 299 301 304 308 311 311 312 313 320 320 328 333 335 333 333 329 332 329 329 327 324 321 317 317 314 313 311 309 307 307 307 308 310 310 312 315 317 317 320 325 326 331 334 343 355 1 7 5 357 355 11 46 82 104 113 117 122 124 127 130 136 135 135 138 141 143 145 145
296 301 305 305 299 303 309 310 305 303 305 306 297 294 298 301 304 308 309 312 314 315 314 313 318 319 325 329 333 332 332 330 331 331 333 331 327 325 322 322 322 322 320 319 317 316 314 314 313 318 323 324 327 329 330 331 337 341 344 348 345 349 348 351 352 360 24 46 44 48 49 64 85 101 112 116 125 130 131 139 139 140 137 141 150
307 306 300 296 303 309 313 310 309 306 300 300 301 304 306 309 309 311 316 316 316 316 315 315 317 323 327 326 327 329 329 331 331 331 330 332 332 330 328 326 325 325 326 325 323 325 325 324 324 326 332 336 338 341 344 344 347 351 355 357 357 349 344 344 349 18 43 55 61 54 59 56 59 62 79 94 91 97 104 110 115 126 136 141 141
305 294 290 295 301 307 306 308 311 304 306 307 306 308 313 314 315 316 316 317 317 316 317 319 325 329 327 327 327 327 327 330 329 331 331 331 331 331 331 330 330 330 332 330 331 331 332 332 335 334 333 336 342 347 351 353 352 351 353 356 357 0 354 354 4 10 21 35 58 80 77 80 71 71 72 78 83 91 93 101 103 113 108 125 128
294 287 286 292 302 303 300 310 308 310 307 307 310 311 313 313 318 318 320 317 315 315 319 323 325 325 325 325 324 326 326 325 325 326 329 332 335 333 333 333 335 334 332 334 337 338 338 338 340 342 342 340 342 348 353 356 356 356 356 359 3 10 16 17 14 19 25 42 53 62 70 71 72 69 74 76 82 87 93 90 92 88 100 102 112
289 283 287 297 294 295 300 306 305 305 304 310 312 314 314 319 318 317 311 308 310 312 317 322 324 322 322 320 321 322 325 327 328 331 333 333 333 335 334 334 333 334 337 340 340 340 340 341 344 346 347 346 347 345 347 357 4 4 6 5 11 16 24 32 32 29 38 44 50 59 65 69 71 72 71 75 77 79 84 84 90 94 95 97 97
272 272 277 286 283 282 281 285 281 284 292 299 303 307 311 314 315 312 309 310 311 315 321 322 321 319 318 323 327 329 331 331 332 331 331 331 332 332 334 335 335 338 341 340 338 339 341 342 345 347 349 350 351 352 354 355 4 10 14 19 24 25 25 30 35 38 39 39 44 55 62 71 70 71 70 74 77 82 81 86 87 90 90 93 93
267 272 272 268 272 281 292 292 294 294 303 304 308 310 314 314 307 302 302 306 309 315 320 320 316 317 318 317 318 320 321 322 323 324 327 329 331 332 333 335 335 336 337 338 339 340 341 343 346 347 349 351 352 352 357 1 8 15 22 29 36 39 39 38 39 42 49 52 43 47 55 60 69 70 73 74 80 79 88 86 83 81 84 89 94